Regional Weather Roundup
Issued by NWS Charleston, SC

Current Version | Previous Version | Graphics & Text | Print | Product List | Glossary On
Versions: 1 2 3 4 5 6 7 8 9 10 11 12 13 14 15 16 17 18 19 20 21 22 23 24 25 26 27 28 29 30 31 32 33 34 35 36 37 38 39 40 41 42 43 44 45 46 47 48 49 50
000
ASUS42 KCHS 260710
RWRCHS
REGIONAL WEATHER ROUNDUP
NATIONAL WEATHER SERVICE CHARLESTON SC
200 AM EST WED NOV 26 2014

NOTE: "FAIR" INDICATES FEW OR NO CLOUDS BELOW 12,000 FEET WITH NO
SIGNIFICANT WEATHER AND/OR OBSTRUCTIONS TO VISIBILITY.

NOT ALL STATIONS ARE QUALITY CONTROLLED BY THE NATIONAL
WEATHER SERVICE. USE DATA WITH CAUTION...ESPECIALLY
DEWPOINT OBSERVATIONS.

SCZ027-030-031-034>040-042>050-260800-
...SOUTHEAST SOUTH CAROLINA...

CITY           SKY/WX    TMP DP  RH WIND       PRES   REMARKS
N CHARLESTON   LGT RAIN  61  60  97 NW6       29.80F FOG
WATERFRONT PRK   N/A     61 N/A N/A NW7         N/A
MOUNT PLEASANT NOT AVBL
JOHNS ISLAND   DRIZZLE   63  63 100 CALM      29.81S
PINOPOLIS      NOT AVBL
MONCKS CORNER  LGT RAIN  61  61 100 N6        29.81F
SUMMERVILLE    HVY RAIN  59  59 100 N3        29.83F
BEAUFORT MCAS  LGT RAIN  59  58  96 NW14      29.83F FOG
BEAUFORT ARPT  LGT RAIN  59  59 100 NW12      29.82F
HILTON HEAD IS CLOUDY    59  59 100 NW8       29.84S FOG
WALTERBORO     RAIN      59 N/A N/A NW6       29.85S
ALLENDALE      LGT RAIN  52  52 100 N8G16     29.86F

...SOUTHERN MIDLANDS AND PEE DEE...

CITY           SKY/WX    TMP DP  RH WIND       PRES   REMARKS
GEORGETOWN     NOT AVBL
KINGSTREE      NOT AVBL
ORANGEBURG     LGT RAIN  58  55  90 NW6       29.87F FOG
BARNWELL       LGT RAIN  50  48  93 NW12G17   29.89F
AIKEN          RAIN      48  48 100 NW8       29.95F
MANNING        NOT AVBL
COLUMBIA       RAIN      54  52  93 N8        29.89F FOG
SUMTER         LGT RAIN  55  54  94 N8        29.85F
FLORENCE       RAIN      54  52  93 N14       29.85F FOG
MYRTLE BEACH   CLOUDY    64  61  88 E12       29.80F
N MYRTLE BEACH CLOUDY    66  64  93 E8        29.80F

$$

GAZ063-065-086>088-099>101-113>116-118-119-134>141-150-260800-
...SOUTHEAST GEORGIA...

CITY           SKY/WX    TMP DP  RH WIND       PRES   REMARKS
SAVANNAH ARPT  LGT RAIN  58  54  86 NW14G20   29.85F FOG
HUNTER AAF     RAIN      57  57 100 NW15      29.81F FOG
FORT STEWART   RAIN      52  50  93 NW9G21    29.87R FOG
STATESBORO     NOT AVBL
SYLVANIA       RAIN      49  49  97 N13G20    29.90F
CLAXTON        DRIZZLE   50  50 100 NW14G21   29.92R

...CSRA...CENTRAL AND FAR SOUTHEAST GEORGIA...

CITY           SKY/WX    TMP DP  RH WIND       PRES   REMARKS
THOMSON        NOT AVBL
AUGUSTA-BUSH   LGT RAIN  48  47  96 NW10      29.96S FOG
AUGUSTA-DANIEL RAIN      49  46  90 NW13G22   29.96F
SWAINSBORO     RAIN      48  48 100 NW13      29.97R
VIDALIA        RAIN      46  46 100 N15G22    29.94R
HAZLEHURST     RAIN      47  47 100 NW8G21    29.95R
ALMA           LGT RAIN  48  46  93 NW12G20   29.92F FOG
WAYCROSS       DRIZZLE   51  50  96 N12G23    29.93S
JESUP          LGT RAIN  52  52 100 N8G17     29.90R
BAXLEY         RAIN      50  46  87 N10G20    29.92F
BRUNSWICK      CLOUDY    57  55  94 W8G18     29.87R
SAINT SIMONS   LGT RAIN  57  56  96 NW10G21   29.85S FOG

$$

SCZ027-028-034-036>038-045-046-048>050-GAZ119-141-260800-
...LAKE AND SUPPLEMENTAL COASTAL OBSERVATIONS...

STATION/POSITION TIME  TEMP    WIND        PRES    WAVE   SWELL
                       AIR SEA DIR/SP/G            HT/PER HT/PER/DIR
                 (UTC) (F)     (DEG/KT/KT) (MB)    (FT/S) (FT/S/D)
UPR LAKE MARION  NOT AVBL
WINYAH BAY       0600   63      50/  9     1010.0S
LAKE MURRAY      0600   52     330/  4/  8 1012.9F
ACE BASIN NERRS  0600   59     360/  3     1010.0S
FORT PULASKI     0700   59     310/ 10/ 11 1010.5R
SAPELO ISLAND    0600   59     320/  7     1011.0S

$$

ANZ835-935-AMZ111-154-330-350-352-354-370-450-454-472-260800-
...C-MAN AND BUOY OBSERVATIONS...

STATION/POSITION TIME  TEMP    WIND        PRES    WAVE   SWELL
                       AIR SEA DIR/SP/G            HT/PER HT/PER/DIR
                 (UTC) (F)     (DEG/KT/KT) (MB)    (FT/S) (FT/S/D)
FOLLY BEACH CMAN 0600   62     300/  6/  8 1009.9F
BUOY 41004       0700   74 75  130/ 27/ 33 1007.3R   8/ 6   2/17
BUOY 41008       0700   61 64  340/ 16/ 17 1009.4F   4/ 5   2/ 90/10
CAPERS NEARSHORE 0600   66     230/  4/  6   N/A
FRIPP NEARSHORE  NOT AVBL


STATION/POSITION TIME  TEMP    WIND        PRES    WAVE   SWELL
                       AIR SEA DIR/SP/G            HT/PER HT/PER/DIR
                 (UTC) (F)     (DEG/KT/KT) (MB)    (FT/S) (FT/S/D)
5E ST. MARYS GA  0700      62                N/A     4/ 5   2/110/11
FRYING PAN BUOY  0700   72 71  130/ 27/ 33 1009.3F   5/ 8   3/120/ 8
BUOY 41025       0700   69     170/  8/ 12 1014.7F   5/ 9   5/140/ 9
CAPE LOOKOUT NC  0600   63      90/ 11/ 14 1014.1F
BUOY 41002       0631   75 73  180/ 19/ 23 1016.1F   6/ 8   3/130/ 8
BUOY 41010       0700   78 78  180/ 19/ 23 1012.7S   8/ 9   3/130/ 9
ST AUGUSTINE FL  0700   66     280/  4/  5 1010.5F


$$


USA.gov is the U.S. government's official web portal to all federal, state and local government web resources and services.